User: anonymous   Login
Location: Bojarzin Observatory
(39.7980°N, 89.7627°W)
Time: 11:49:24
(UTC-05:00)
Language:

ISS - Orbit

View from above orbital plane
View from above orbital plane
View from above satellite
View from above satellite

Ground track
Ground track

The orbit data is extracted from the following two-line orbital elements,

1 25544U 98067A   16127.56899446  .00005943  00000-0  95787-4 0  9999
2 25544  51.6430 265.6420 0002069  92.0936  14.2442 15.54462724998500
Epoch (UTC): 06 May 2016 13:39:21
Eccentricity: 0.0002069
inclination: 51.6430°
perigee height: 402 km
apogee height: 405 km
right ascension of ascending node: 265.6420°
argument of perigee: 92.0936°
revolutions per day: 15.54462724
mean anomaly at epoch: 14.2442°
orbit number at epoch: 99850

The dashed part of the orbit path shows where the satellite is in the earth's shadow,  

DLR